Погода в Сальтильо

Мексика     25°25′50″N   100°59′48″W
темп.,
°C
ветер,
м/с
пор.,
м/с
влажн.,
%
обл.,
%
осадки,
мм/ч
давл.,
гПа
погр.,
м
24 мая, вт
вт2401:00+21юв24590 0.8 1009279
04:00+19ююв56622 0.0 1007238
07:00+18ю56640 0.1 1008142
10:00+24ююз44370 0.0 1008881
13:00+29ююз35220 0.0 10062646
16:00+31сз561039 0.0 10034412
19:00+30ссз6593 0.0 10022801
22:00+25св23350 0.0 1005609
25 мая, ср
ср2501:00+23ююз11310 0.0 100674
04:00+22ююв22240 0.0 100551
07:00+20ю33410 0.0 100887
10:00+26з33190 0.0 1009996
13:00+29ссз66150 0.0 10082594
16:00+28с75330 0.0 10081819
19:00+26ссв54350 0.0 10081203
22:00+22с34470 0.0 1012396
26 мая, чт
чт2601:00+19ссв22590 0.0 1015264
04:00+17св23700 0.0 1014192
07:00+16св11700 0.0 1015117
10:00+23ссз11450 0.0 1015520
13:00+28ссв55160 0.0 10131870
16:00+30с76130 0.0 10112115
19:00+28ссв76200 0.0 10101391
22:00+23всв343794 0.0 1013196
27 мая, пт
пт2701:00+22юв11371 0.0 101595
04:00+21ю1251100 0.0 1015127
07:00+19вюв115933 0.0 101677
10:00+24с11405 0.0 1016721
13:00+29с652510 0.0 10142283
16:00+30ссв871673 0.0 10122651
19:00+28св872364 0.0 10111722
22:00+24в453422 0.0 1013239
28 мая, сб
сб2801:00+22вюв22380 0.0 1013113
04:00+21ююв22410 0.0 101395
07:00+19ю33473 0.0 101374
10:00+26юз222413 0.0 1013639
13:00+30с35122 0.0 10112921
16:00+32ссв8695 0.0 10073746
19:00+30св86142 0.0 10061583
22:00+25в34220 0.0 1009182